EW9434 Weather Reports


Display with metric or nautical units.
time (UTC)temp
F
wind
direction
speed
MPH
gust
MPH
rain 1hr
in
rain 24hr
in
rain mn
in
humidity
%
barometer
mb
20260902030209 85 124 1.0 3.0 0.00 0.00 0.00 67 1016.4
20260902030029 85 124 1.0 3.0 0.00 0.00 0.00 66 1014.8
20260902025905 85 125 1.0 3.0 0.00 0.00 0.00 66 1016.4
20260902025358 85 126 1.0 3.0 0.00 0.00 0.00 66 1016.4
20260902024611 85 126 1.0 3.0 0.00 0.00 0.00 66 1016.4
20260902024522 85 127 0.0 3.0 0.00 0.00 0.00 65 1014.8
20260902024111 86 126 1.0 3.0 0.00 0.00 0.00 65 1016.4
20260902023541 86 124 1.0 4.0 0.00 0.00 0.00 65 1016.4
20260902023041 86 124 1.0 4.0 0.00 0.00 0.00 65 1016.4
20260902023009 85 124 1.0 4.0 0.00 0.00 0.00 65 1014.8
20260902022510 86 124 1.0 3.0 0.00 0.00 0.00 65 1016.4
20260902022233 86 124 2.0 3.0 0.00 0.00 0.00 64 1016.4
20260902021608 86 125 1.0 3.0 0.00 0.00 0.00 64 1014.8
20260902021442 86 125 1.0 3.0 0.00 0.00 0.00 64 1016.4
20260902020939 86 91 1.0 5.0 0.00 0.00 0.00 64 1016.4
20260902020638 86 87 2.0 5.0 0.00 0.00 0.00 64 1016.3
20260902020033 86 85 0.0 3.0 0.00 0.00 0.00 64 1014.7
20260902015905 86 84 1.0 4.0 0.00 0.00 0.00 64 1016.3
20260902015405 86 78 1.0 5.0 0.00 0.00 0.00 63 1016.2
20260902014859 87 77 1.0 5.0 0.00 0.00 0.00 63 1016.2
20260902014547 86 68 0.0 3.0 0.00 0.00 0.00 63 1014.6
20260902014359 87 68 1.0 3.0 0.00 0.00 0.00 63 1016.2
20260902013832 87 113 1.0 4.0 0.00 0.00 0.00 62 1016.2
20260902013325 87 114 2.0 4.0 0.00 0.00 0.00 61 1016.2
20260902013056 87 116 1.0 5.0 0.00 0.00 0.00 61 1014.6
20260902012822 87 142 2.0 5.0 0.00 0.00 0.00 61 1016.2
20260902012254 87 145 1.0 4.0 0.00 0.00 0.00 61 1016.1
20260902012017 87 149 1.0 3.0 0.00 0.00 0.00 61 1016.1
20260902011528 87 155 1.0 3.0 0.00 0.00 0.00 62 1014.4
20260902011224 87 156 1.0 2.0 0.00 0.00 0.00 61 1016.0
20260902010657 87 156 0.0 2.0 0.00 0.00 0.00 61 1016.0
20260902010131 87 156 0.0 2.0 0.00 0.00 0.00 61 1016.0
20260902010101 87 156 0.0 2.0 0.00 0.00 0.00 61 1014.3
20260902005603 87 156 0.0 2.0 0.00 0.00 0.00 61 1015.9
20260902005101 87 155 0.0 1.0 0.00 0.00 0.00 60 1015.9
20260902004537 87 156 0.0 2.0 0.00 0.00 0.00 60 1015.9
20260902004506 87 155 0.0 1.0 0.00 0.00 0.00 60 1014.2
20260902004228 88 156 0.0 3.0 0.00 0.00 0.00 60 1015.9
20260902003505 88 156 1.0 3.0 0.00 0.00 0.00 59 1015.8
20260902003202 88 154 1.0 3.0 0.00 0.00 0.00 59 1015.8
20260902003131 88 156 1.0 3.0 0.00 0.00 0.00 59 1014.2
20260902002414 88 153 1.0 4.0 0.00 0.00 0.00 58 1015.9
20260902001849 89 144 1.0 4.0 0.00 0.00 0.00 58 1015.9
20260902001514 88 153 1.0 4.0 0.00 0.00 0.00 58 1014.3
20260902001323 89 149 1.0 4.0 0.00 0.00 0.00 58 1015.9
20260902000757 89 203 1.0 4.0 0.00 0.00 0.00 57 1016.0
20260902000230 89 193 1.0 6.0 0.00 0.00 0.00 57 1016.0
20260902000221 89 203 1.0 6.0 0.00 0.00 0.00 56 1016.0
20260902000029 89 203 0.0 6.0 0.00 0.00 0.00 56 1014.4
20260901235206 90 212 1.0 5.0 0.00 0.00 0.00 55 1016.0
20260901234640 90 236 1.0 5.0 0.00 0.00 0.00 55 1016.0
20260901234548 90 236 2.0 5.0 0.00 0.00 0.00 55 1014.4
20260901234139 90 183 1.0 4.0 0.00 0.00 0.00 54 1016.1
20260901233616 90 182 2.0 5.0 0.00 0.00 0.00 53 1016.1
20260901233312 91 228 2.0 5.0 0.00 0.00 0.00 52 1016.1
20260901233106 90 215 1.0 4.0 0.00 0.00 0.00 52 1014.5
20260901232812 91 198 2.0 5.0 0.00 0.00 0.00 51 1016.1
20260901232026 91 76 2.0 7.0 0.00 0.00 0.00 52 1016.2
20260901231535 91 185 2.0 6.0 0.00 0.00 0.00 52 1014.5
20260901231523 92 185 2.0 7.0 0.00 0.00 0.00 51 1016.2
20260901231023 92 171 2.0 6.0 0.00 0.00 0.00 51 1016.1
20260901230457 92 147 2.0 6.0 0.00 0.00 0.00 50 1016.1
20260901230100 92 226 2.0 5.0 0.00 0.00 0.00 50 1014.5
20260901225948 93 227 2.0 6.0 0.00 0.00 0.00 51 1016.1
20260901225445 93 213 3.0 7.0 0.00 0.00 0.00 51 1016.2
20260901224943 93 190 3.0 7.0 0.00 0.00 0.00 51 1016.1
20260901224524 93 207 3.0 5.0 0.00 0.00 0.00 52 1014.5
20260901224445 94 192 3.0 6.0 0.00 0.00 0.00 51 1016.1
20260901223920 94 143 2.0 6.0 0.00 0.00 0.00 51 1016.1
20260901223620 94 134 1.0 8.0 0.00 0.00 0.00 51 1016.1
20260901223050 94 149 1.0 4.0 0.00 0.00 0.00 50 1014.4
20260901222858 94 187 2.0 8.0 0.00 0.00 0.00 51 1016.1
20260901222351 94 172 3.0 11.0 0.00 0.00 0.00 51 1016.0
20260901221829 94 171 2.0 11.0 0.00 0.00 0.00 50 1016.0
20260901221542 94 137 4.0 11.0 0.00 0.00 0.00 50 1014.4
20260901221312 94 84 1.0 4.0 0.00 0.00 0.00 50 1016.1
20260901220817 94 209 2.0 10.0 0.00 0.00 0.00 49 1016.0
20260901220252 94 219 4.0 10.0 0.00 0.00 0.00 51 1015.9
20260901220032 94 161 3.0 10.0 0.00 0.00 0.00 50 1014.3
20260901215735 94 168 3.0 9.0 0.00 0.00 0.00 48 1016.0
20260901215212 94 124 3.0 9.0 0.00 0.00 0.00 48 1016.0
20260901214640 94 141 3.0 9.0 0.00 0.00 0.00 48 1016.0
20260901214610 94 126 3.0 9.0 0.00 0.00 0.00 48 1014.3
20260901214138 94 138 3.0 9.0 0.00 0.00 0.00 49 1015.9
20260901213637 94 179 4.0 11.0 0.00 0.00 0.00 50 1015.9
20260901213627 94 122 4.0 10.0 0.00 0.00 0.00 50 1016.0
20260901213121 94 122 4.0 9.0 0.00 0.00 0.00 50 1014.2
20260901212619 95 184 3.0 9.0 0.00 0.00 0.00 50 1015.9
20260901212102 95 205 4.0 10.0 0.00 0.00 0.00 49 1015.9
20260901211542 95 132 4.0 10.0 0.00 0.00 0.00 49 1016.0
20260901211525 94 134 4.0 9.0 0.00 0.00 0.00 49 1014.3
20260901211034 95 191 4.0 12.0 0.00 0.00 0.00 49 1015.9
20260901210535 95 224 4.0 12.0 0.00 0.00 0.00 50 1016.0
20260901210034 95 118 4.0 10.0 0.00 0.00 0.00 48 1016.0
20260901210012 95 118 3.0 10.0 0.00 0.00 0.00 48 1014.3
20260901205748 95 208 4.0 10.0 0.00 0.00 0.00 48 1016.0
20260901205003 95 233 3.0 10.0 0.00 0.00 0.00 48 1016.0
20260901204547 95 207 3.0 9.0 0.00 0.00 0.00 48 1014.4
20260901204505 96 156 3.0 9.0 0.00 0.00 0.00 48 1016.1
20260901203940 95 126 3.0 9.0 0.00 0.00 0.00 50 1016.1
20260901203436 95 81 3.0 9.0 0.00 0.00 0.00 50 1016.1
20260901203121 95 143 2.0 7.0 0.00 0.00 0.00 50 1014.5
20260901202934 95 149 4.0 15.0 0.00 0.00 0.00 49 1016.1
20260901202436 95 215 4.0 15.0 0.00 0.00 0.00 49 1016.1
20260901201909 95 149 4.0 12.0 0.00 0.00 0.00 50 1016.2
20260901201540 95 59 2.0 8.0 0.00 0.00 0.00 50 1014.4
20260901201406 95 80 4.0 8.0 0.00 0.00 0.00 52 1016.1
20260901200844 95 188 3.0 10.0 0.00 0.00 0.00 51 1016.2
20260901200341 95 76 4.0 14.0 0.00 0.00 0.00 51 1016.1
20260901200005 94 155 3.0 14.0 0.00 0.00 0.00 50 1014.5
20260901195816 94 162 4.0 14.0 0.00 0.00 0.00 51 1016.2
20260901195542 94 70 4.0 11.0 0.00 0.00 0.00 50 1016.2
20260901194813 94 174 5.0 11.0 0.00 0.00 0.00 50 1016.3
20260901194548 94 101 3.0 10.0 0.00 0.00 0.00 52 1014.7
20260901194248 94 173 6.0 12.0 0.00 0.00 0.00 52 1016.4
20260901193744 94 178 6.0 12.0 0.00 0.00 0.00 51 1016.4
20260901193227 94 168 5.0 10.0 0.00 0.00 0.00 51 1016.4
20260901193101 94 145 5.0 10.0 0.00 0.00 0.00 51 1014.8
20260901192727 94 162 5.0 10.0 0.00 0.00 0.00 52 1016.4
20260901192224 94 203 4.0 8.0 0.00 0.00 0.00 53 1016.5
20260901191944 94 110 4.0 11.0 0.00 0.00 0.00 52 1016.6
20260901191556 94 155 3.0 11.0 0.00 0.00 0.00 54 1015.0
20260901191222 94 128 4.0 11.0 0.00 0.00 0.00 52 1016.7
20260901190719 94 82 3.0 8.0 0.00 0.00 0.00 52 1016.6
20260901190219 93 188 4.0 9.0 0.00 0.00 0.00 56 1016.8
20260901190002 93 181 3.0 9.0 0.00 0.00 0.00 52 1015.2
20260901185940 93 133 4.0 8.0 0.00 0.00 0.00 52 1017.0
20260901185218 94 143 4.0 11.0 0.00 0.00 0.00 53 1017.1
20260901184913 93 182 5.0 12.0 0.00 0.00 0.00 53 1017.1
20260901184558 93 165 3.0 11.0 0.00 0.00 0.00 52 1015.4
20260901184147 93 80 5.0 12.0 0.00 0.00 0.00 52 1017.1
20260901183622 93 114 4.0 10.0 0.00 0.00 0.00 55 1017.1
20260901183321 93 99 4.0 10.0 0.00 0.00 0.00 54 1017.2
20260901183033 93 98 5.0 9.0 0.00 0.00 0.00 54 1015.5
20260901182553 93 153 4.0 9.0 0.00 0.00 0.00 55 1017.2
20260901182041 93 135 3.0 9.0 0.00 0.00 0.00 54 1017.2
20260901181541 93 175 4.0 10.0 0.00 0.00 0.00 54 1017.2
20260901181508 92 170 2.0 10.0 0.00 0.00 0.00 54 1015.5
20260901181012 93 205 4.0 9.0 0.00 0.00 0.00 54 1017.2
20260901180448 93 149 4.0 9.0 0.00 0.00 0.00 56 1017.3
20260901180109 92 194 3.0 10.0 0.00 0.00 0.00 55 1015.6
20260901175920 92 199 4.0 10.0 0.00 0.00 0.00 53 1017.4
20260901175349 92 136 4.0 10.0 0.00 0.00 0.00 54 1017.4
20260901174846 92 174 4.0 10.0 0.00 0.00 0.00 57 1017.4
20260901174534 91 105 5.0 10.0 0.00 0.00 0.00 56 1015.7
20260901174344 92 132 4.0 10.0 0.00 0.00 0.00 56 1017.5
20260901173817 92 204 4.0 9.0 0.00 0.00 0.00 55 1017.5
20260901173314 92 90 3.0 9.0 0.00 0.00 0.00 58 1017.5
20260901173258 91 202 4.0 9.0 0.00 0.00 0.00 58 1017.6
20260901173003 91 161 4.0 9.0 0.00 0.00 0.00 57 1015.9
20260901172301 91 76 4.0 11.0 0.00 0.00 0.00 61 1017.7
20260901171801 91 125 4.0 11.0 0.00 0.00 0.00 60 1017.6
20260901171602 90 197 4.0 10.0 0.00 0.00 0.00 59 1016.0
20260901171257 91 190 4.0 10.0 0.00 0.00 0.00 59 1017.7
20260901170752 91 194 4.0 10.0 0.00 0.00 0.00 60 1017.7
20260901170230 90 163 3.0 8.0 0.00 0.00 0.00 62 1017.8
20260901170049 90 172 3.0 8.0 0.00 0.00 0.00 60 1016.1
20260901165659 90 194 3.0 9.0 0.00 0.00 0.00 59 1017.8
20260901165154 90 183 4.0 12.0 0.00 0.00 0.00 61 1017.9
20260901164652 90 166 4.0 12.0 0.00 0.00 0.00 61 1017.9
20260901164600 89 168 5.0 12.0 0.00 0.00 0.00 61 1016.4
20260901164150 89 87 4.0 10.0 0.00 0.00 0.00 64 1017.9
20260901163646 89 114 6.0 12.0 0.00 0.00 0.00 61 1018.0
20260901163146 89 181 6.0 12.0 0.00 0.00 0.00 61 1018.0
20260901163013 88 182 6.0 12.0 0.00 0.00 0.00 61 1016.4
20260901162908 89 49 5.0 11.0 0.00 0.00 0.00 62 1017.9
20260901162140 89 186 6.0 11.0 0.00 0.00 0.00 62 1018.0
20260901161832 89 221 5.0 11.0 0.00 0.00 0.00 62 1018.0
20260901161533 88 205 4.0 11.0 0.00 0.00 0.00 64 1016.4
20260901161111 88 197 5.0 12.0 0.00 0.00 0.00 62 1018.0
20260901160825 88 172 5.0 12.0 0.00 0.00 0.00 62 1018.0
20260901160058 88 69 4.0 11.0 0.00 0.00 0.00 63 1016.3
20260901160040 88 155 5.0 14.0 0.00 0.00 0.00 63 1018.0
20260901155536 88 177 5.0 14.0 0.00 0.00 0.00 62 1018.0
20260901155008 88 173 5.0 11.0 0.00 0.00 0.00 62 1018.1
20260901154546 88 185 4.0 11.0 0.00 0.00 0.00 63 1016.6
20260901154506 88 194 5.0 11.0 0.00 0.00 0.00 64 1018.2
20260901153939 88 204 5.0 11.0 0.00 0.00 0.00 62 1018.3
20260901153436 88 191 4.0 12.0 0.00 0.00 0.00 64 1018.3
20260901153136 87 211 5.0 12.0 0.00 0.00 0.00 66 1018.2
20260901153055 87 184 3.0 11.0 0.00 0.00 0.00 65 1016.7
20260901152345 87 120 6.0 15.0 0.00 0.00 0.00 66 1018.3
20260901151818 87 171 4.0 15.0 0.00 0.00 0.00 66 1018.3
20260901151552 86 104 4.0 15.0 0.00 0.00 0.00 66 1016.6
20260901151314 87 124 4.0 10.0 0.00 0.00 0.00 66 1018.3
20260901150814 86 194 4.0 11.0 0.00 0.00 0.00 68 1018.2
20260901150245 86 136 4.0 10.0 0.00 0.00 0.00 68 1018.2
20260901150020 85 197 3.0 11.0 0.00 0.00 0.00 68 1016.5
20260901145721 85 174 4.0 12.0 0.00 0.00 0.00 68 1018.2
20260901145153 85 217 4.0 10.0 0.00 0.00 0.00 69 1018.2
20260901144650 85 138 4.0 9.0 0.00 0.00 0.00 69 1018.3
20260901144527 84 186 4.0 9.0 0.00 0.00 0.00 69 1016.6
20260901144126 85 141 3.0 9.0 0.00 0.00 0.00 69 1018.2
20260901143600 85 139 4.0 10.0 0.00 0.00 0.00 70 1018.3
20260901143056 84 66 5.0 11.0 0.00 0.00 0.00 69 1018.2
20260901143003 84 125 4.0 10.0 0.00 0.00 0.00 70 1016.7
20260901142553 84 178 4.0 11.0 0.00 0.00 0.00 71 1018.4
20260901142045 84 96 3.0 9.0 0.00 0.00 0.00 72 1018.4
20260901141546 84 213 4.0 10.0 0.00 0.00 0.00 73 1018.5
20260901141522 83 159 2.0 10.0 0.00 0.00 0.00 73 1016.9
20260901141013 83 106 4.0 10.0 0.00 0.00 0.00 73 1018.5
20260901140513 83 157 4.0 9.0 0.00 0.00 0.00 74 1018.5
20260901140025 82 159 4.0 9.0 0.00 0.00 0.00 73 1016.8
20260901135946 83 192 3.0 8.0 0.00 0.00 0.00 74 1018.4
20260901135421 83 193 3.0 8.0 0.00 0.00 0.00 73 1018.5
20260901134856 83 160 2.0 8.0 0.00 0.00 0.00 74 1018.5
20260901134630 82 150 3.0 8.0 0.00 0.00 0.00 75 1016.8
20260901134325 82 222 2.0 6.0 0.00 0.00 0.00 75 1018.4
20260901133826 82 148 2.0 4.0 0.00 0.00 0.00 78 1018.4
20260901133322 81 167 2.0 4.0 0.00 0.00 0.00 78 1018.4
20260901133032 80 166 0.0 4.0 0.00 0.00 0.00 78 1016.8
20260901132757 80 167 2.0 5.0 0.00 0.00 0.00 78 1018.3
20260901132229 80 170 2.0 5.0 0.00 0.00 0.00 79 1018.3
20260901131728 80 145 2.0 7.0 0.00 0.00 0.00 79 1018.3
20260901131547 79 144 1.0 7.0 0.00 0.00 0.00 79 1016.7
20260901131202 79 134 3.0 7.0 0.00 0.00 0.00 79 1018.3
20260901130659 79 143 2.0 5.0 0.00 0.00 0.00 81 1018.4
20260901130417 78 150 3.0 5.0 0.00 0.00 0.00 81 1018.5
20260901130039 78 150 2.0 5.0 0.00 0.00 0.00 81 1017.0
20260901125655 78 129 3.0 6.0 0.00 0.00 0.00 81 1018.4
20260901125348 78 122 3.0 6.0 0.00 0.00 0.00 82 1018.4
20260901124624 78 115 3.0 6.0 0.00 0.00 0.00 82 1018.5
20260901124532 77 113 2.0 6.0 0.00 0.00 0.00 83 1016.9
20260901124124 77 155 2.0 6.0 0.00 0.00 0.00 83 1018.5
20260901123048 76 123 2.0 6.0 0.00 0.00 0.00 84 1017.0
20260901123030 77 131 2.0 5.0 0.00 0.00 0.00 84 1018.5
20260901122528 77 111 2.0 5.0 0.00 0.00 0.00 85 1018.6
20260901122000 76 146 2.0 4.0 0.00 0.00 0.00 85 1018.6
20260901121541 76 273 1.0 4.0 0.00 0.00 0.00 85 1017.0
20260901121500 76 273 2.0 4.0 0.00 0.00 0.00 86 1018.5
20260901120930 76 121 2.0 5.0 0.00 0.00 0.00 86 1018.5
20260901120426 76 120 2.0 4.0 0.00 0.00 0.00 86 1018.4
20260901120052 75 128 1.0 4.0 0.00 0.00 0.00 87 1016.7
20260901115924 76 273 1.0 4.0 0.00 0.00 0.00 87 1018.3
20260901115424 75 131 0.0 1.0 0.00 0.00 0.00 87 1018.3
20260901114857 75 273 0.0 0.0 0.00 0.00 0.00 87 1018.2
20260901114606 75 131 0.0 0.0 0.00 0.00 0.00 87 1016.6
20260901114327 75 132 0.0 0.0 0.00 0.00 0.00 87 1018.1
20260901113826 75 132 0.0 0.0 0.00 0.00 0.00 87 1018.0
20260901113327 75 132 0.0 3.0 0.00 0.00 0.00 87 1017.9
20260901113042 76 132 0.0 3.0 0.00 0.00 0.00 87 1017.9
20260901113040 75 132 0.0 3.0 0.00 0.00 0.00 87 1016.3
20260901112320 76 132 0.0 2.0 0.00 0.00 0.00 87 1017.8
20260901112014 76 132 0.0 2.0 0.00 0.00 0.00 87 1017.7
20260901111548 75 132 0.0 1.0 0.00 0.00 0.00 86 1016.1
20260901111248 76 132 0.0 1.0 0.00 0.00 0.00 86 1017.7
20260901110719 76 132 0.0 3.0 0.00 0.00 0.00 86 1017.6
20260901110220 76 132 0.0 3.0 0.00 0.00 0.00 86 1017.6
20260901110041 75 132 0.0 3.0 0.00 0.00 0.00 86 1016.0
20260901105713 76 136 0.0 1.0 0.00 0.00 0.00 86 1017.6
20260901105212 76 138 0.0 1.0 0.00 0.00 0.00 86 1017.5
20260901104644 76 138 0.0 4.0 0.00 0.00 0.00 86 1017.6
20260901104552 75 138 0.0 4.0 0.00 0.00 0.00 86 1015.9
20260901104415 76 138 1.0 4.0 0.00 0.00 0.00 86 1017.5
20260901103614 76 273 0.0 3.0 0.00 0.00 0.00 85 1017.5
20260901103118 76 140 0.0 2.0 0.00 0.00 0.00 85 1017.4
20260901103046 76 140 0.0 2.0 0.00 0.00 0.00 85 1015.8
20260901102551 76 141 1.0 3.0 0.00 0.00 0.00 85 1017.3
20260901102049 76 142 1.0 3.0 0.00 0.00 0.00 85 1017.3
20260901102009 77 142 1.0 3.0 0.00 0.00 0.00 85 1017.3
20260901101507 76 142 1.0 3.0 0.00 0.00 0.00 85 1015.6
20260901100958 77 144 1.0 3.0 0.00 0.00 0.00 84 1017.2
20260901100431 77 145 1.0 2.0 0.00 0.00 0.00 84 1017.2
20260901100027 76 146 0.0 4.0 0.00 0.00 0.00 84 1015.5
20260901095903 77 146 1.0 5.0 0.00 0.00 0.00 84 1017.2
20260901095405 77 161 1.0 5.0 0.00 0.00 0.00 84 1017.2
20260901094859 76 120 1.0 3.0 0.00 0.00 0.00 85 1017.2
20260901094548 76 120 0.0 3.0 0.00 0.00 0.00 85 1015.5
20260901094358 77 120 1.0 3.0 0.00 0.00 0.00 85 1017.1
20260901093831 77 118 0.0 1.0 0.00 0.00 0.00 85 1017.2
20260901093328 77 118 0.0 1.0 0.00 0.00 0.00 85 1017.1
20260901093048 76 118 0.0 1.0 0.00 0.00 0.00 84 1015.5
20260901092825 77 118 0.0 2.0 0.00 0.00 0.00 84 1017.1
20260901092318 77 118 0.0 2.0 0.00 0.00 0.00 84 1017.1
20260901091819 77 117 1.0 3.0 0.00 0.00 0.00 84 1017.1
20260901091537 77 117 0.0 2.0 0.00 0.00 0.00 84 1015.4
20260901091257 77 118 1.0 3.0 0.00 0.00 0.00 84 1017.0
20260901090737 77 117 1.0 3.0 0.00 0.00 0.00 84 1017.0
20260901090216 77 118 0.0 3.0 0.00 0.00 0.00 84 1017.0
20260901090050 76 117 0.0 3.0 0.00 0.00 0.00 84 1015.3
20260901085654 77 117 0.0 1.0 0.00 0.00 0.00 84 1016.8
20260901085135 77 117 0.0 1.0 0.00 0.00 0.00 85 1016.8
20260901085103 77 117 0.0 1.0 0.00 0.00 0.00 84 1016.7
20260901084542 77 117 0.0 1.0 0.00 0.00 0.00 84 1015.2
20260901084308 77 117 0.0 1.0 0.00 0.00 0.00 84 1016.7
20260901083525 77 117 0.0 1.0 0.00 0.00 0.00 84 1016.6
20260901083224 77 117 0.0 1.0 0.00 0.00 0.00 84 1016.6
20260901083044 77 117 0.0 1.0 0.00 0.00 0.00 84 1015.1
20260901082451 78 117 0.0 1.0 0.00 0.00 0.00 83 1016.6
20260901081935 78 117 1.0 3.0 0.00 0.00 0.00 83 1016.5
20260901081704 78 117 0.0 3.0 0.00 0.00 0.00 83 1016.6
20260901081524 77 117 1.0 3.0 0.00 0.00 0.00 83 1015.0
20260901080905 78 115 0.0 1.0 0.00 0.00 0.00 83 1016.6
20260901080405 78 115 0.0 2.0 0.00 0.00 0.00 83 1016.6
20260901080014 77 115 0.0 2.0 0.00 0.00 0.00 84 1015.1
20260901075844 78 115 0.0 2.0 0.00 0.00 0.00 84 1016.6
20260901075318 78 116 0.0 1.0 0.00 0.00 0.00 84 1016.7
20260901074758 78 116 0.0 1.0 0.00 0.00 0.00 84 1016.6
20260901074532 77 116 0.0 1.0 0.00 0.00 0.00 84 1015.1
20260901074233 78 116 0.0 2.0 0.00 0.00 0.00 83 1016.6
20260901073950 78 118 0.0 2.0 0.00 0.00 0.00 83 1016.4
20260901073231 78 118 0.0 2.0 0.00 0.00 0.00 83 1016.4
20260901073016 78 118 0.0 2.0 0.00 0.00 0.00 83 1014.9
20260901072731 78 118 0.0 2.0 0.00 0.00 0.00 83 1016.4
20260901072211 78 118 0.0 1.0 0.00 0.00 0.00 83 1016.4
20260901071644 78 118 0.0 2.0 0.00 0.00 0.00 83 1016.5
20260901071509 78 118 0.0 2.0 0.00 0.00 0.00 83 1014.9
20260901071121 78 118 0.0 2.0 0.00 0.00 0.00 83 1016.4
20260901070601 78 118 1.0 4.0 0.00 0.00 0.00 83 1016.4
20260901070257 78 118 1.0 4.0 0.00 0.00 0.00 83 1016.5
20260901070004 78 118 0.0 4.0 0.00 0.00 0.00 83 1014.9
20260901065508 78 117 0.0 3.0 0.00 0.00 0.00 83 1016.4
20260901064943 78 117 1.0 3.0 0.00 0.00 0.00 83 1016.3
20260901064505 78 117 1.0 3.0 0.00 0.00 0.00 82 1014.8
20260901064421 79 117 1.0 3.0 0.00 0.00 0.00 82 1016.4
20260901064341 79 116 0.0 3.0 0.00 0.00 0.00 82 1016.4
20260901063353 79 116 1.0 5.0 0.00 0.00 0.00 82 1016.2
20260901063027 78 116 0.0 5.0 0.00 0.00 0.00 82 1014.6
20260901062833 79 116 1.0 5.0 0.00 0.00 0.00 82 1015.9
20260901062328 79 74 1.0 5.0 0.00 0.00 0.00 82 1015.9
20260901062019 79 86 2.0 7.0 0.00 0.00 0.00 82 1016.1
20260901061511 79 83 2.0 7.0 0.00 0.00 0.00 82 1014.5
20260901061236 79 94 3.0 7.0 0.00 0.00 0.00 82 1016.1
20260901060707 79 70 3.0 6.0 0.00 0.00 0.00 82 1016.0
20260901060430 79 118 3.0 6.0 0.00 0.00 0.00 82 1016.0
20260901060026 79 80 3.0 6.0 0.00 0.00 0.00 82 1014.4
20260901055639 79 120 2.0 5.0 0.00 0.00 0.00 82 1016.1
20260901055136 79 120 2.0 6.0 0.00 0.00 0.00 82 1016.2
20260901054830 79 68 2.0 5.0 0.00 0.00 0.00 81 1016.3
20260901054541 79 69 2.0 5.0 0.00 0.00 0.00 81 1014.8
20260901054312 79 71 2.0 4.0 0.00 0.00 0.00 81 1016.5
20260901053539 79 57 2.0 6.0 0.00 0.00 0.00 81 1016.5
20260901053038 80 93 2.0 6.0 0.00 0.00 0.00 81 1016.5
20260901053010 79 93 1.0 6.0 0.00 0.00 0.00 81 1015.0
20260901052512 80 57 1.0 5.0 0.00 0.00 0.00 81 1016.6
20260901051945 80 107 1.0 4.0 0.00 0.00 0.00 81 1016.6
20260901051609 79 108 0.0 4.0 0.00 0.00 0.00 80 1015.0
20260901051419 80 273 1.0 4.0 0.00 0.00 0.00 80 1016.5
20260901051111 80 101 1.0 4.0 0.00 0.00 0.00 80 1016.5
20260901050616 80 103 1.0 3.0 0.00 0.00 0.00 80 1016.6
20260901050009 79 102 1.0 3.0 0.00 0.00 0.00 80 1015.0
20260901045819 80 273 1.0 3.0 0.00 0.00 0.00 80 1016.5
20260901045253 80 273 1.0 3.0 0.00 0.00 0.00 79 1016.5
20260901044749 80 101 1.0 3.0 0.00 0.00 0.00 78 1016.6
20260901044547 80 273 1.0 3.0 0.00 0.00 0.00 78 1015.2
20260901044248 81 273 1.0 3.0 0.00 0.00 0.00 78 1016.8
20260901043741 81 113 0.0 3.0 0.00 0.00 0.00 77 1017.1
20260901043502 81 273 0.0 2.0 0.00 0.00 0.00 77 1017.2
20260901043059 81 273 0.0 2.0 0.00 0.00 0.00 77 1015.5
20260901042710 81 113 0.0 2.0 0.00 0.00 0.00 77 1017.2
20260901042209 81 113 1.0 2.0 0.00 0.00 0.00 77 1017.2
20260901041700 81 113 1.0 2.0 0.00 0.00 0.00 76 1017.2
20260901041607 81 113 0.0 2.0 0.00 0.00 0.00 76 1015.6
20260901041158 81 113 0.0 2.0 0.00 0.00 0.00 76 1017.3
20260901040631 81 273 0.0 2.0 0.00 0.00 0.00 75 1017.3
20260901040103 81 113 0.0 2.0 0.00 0.00 0.00 75 1015.7
20260901035537 82 113 1.0 2.0 0.00 0.00 0.00 74 1017.2
20260901035231 82 113 1.0 2.0 0.00 0.00 0.00 74 1017.3
20260901034608 82 113 0.0 2.0 0.00 0.00 0.00 74 1015.6
20260901034440 82 113 1.0 2.0 0.00 0.00 0.00 74 1017.2
20260901033940 82 273 1.0 2.0 0.00 0.00 0.00 73 1017.2
20260901033434 83 273 1.0 2.0 0.00 0.00 0.00 73 1017.3
20260901033015 82 273 0.0 2.0 0.00 0.00 0.00 73 1015.7
20260901032933 83 273 1.0 2.0 0.00 0.00 0.00 73 1017.4
20260901032423 83 114 1.0 2.0 0.00 0.00 0.00 72 1017.3
20260901031854 83 115 0.0 2.0 0.00 0.00 0.00 72 1017.4
20260901031543 83 115 0.0 2.0 0.00 0.00 0.00 72 1015.8
20260901031354 83 115 0.0 2.0 0.00 0.00 0.00 71 1017.5
20260901030829 83 115 0.0 2.0 0.00 0.00 0.00 71 1017.3
20260901030538 83 116 0.0 2.0 0.00 0.00 0.00 71 1017.3